• In Russia
  • List of Countries
  • For 7 days
  • Water Temperature
  • Weather Map
  • Weather Widgets
  • user-avatar
    Login

    Hourly Weather São Paulo

    Today, 15 December, Sunday

    Time Temperature Precipitation Wind Pressure Humidity
    00:00 +23°C° 0.2 mm 2 mps 701 mmHg 87%
    01:00 +23°C° 0 mm 2 mps 700 mmHg 87%
    02:00 +23°C° 0 mm 2 mps 700 mmHg 87%
    03:00 +23°C° 0 mm 2 mps 699 mmHg 87%
    04:00 +23°C° 0 mm 2 mps 700 mmHg 87%
    05:00 +23°C° 0 mm 2 mps 700 mmHg 87%
    06:00 +23°C° 0 mm 2 mps 700 mmHg 87%
    07:00 +24°C° 0 mm 2 mps 700 mmHg 80%
    08:00 +26°C° 0 mm 2 mps 701 mmHg 72%
    09:00 +27°C° 0 mm 3 mps 701 mmHg 65%
    10:00 +29°C° 0 mm 3 mps 701 mmHg 59%
    11:00 +30°C° 0 mm 4 mps 701 mmHg 52%
    12:00 +33°C° 0 mm 4 mps 701 mmHg 46%
    13:00 +33°C° 0.1 mm 4 mps 700 mmHg 47%
    14:00 +33°C° 0.1 mm 4 mps 699 mmHg 47%
    15:00 +33°C° 0.1 mm 4 mps 699 mmHg 47%
    16:00 +32°C° 0.1 mm 4 mps 699 mmHg 51%
    17:00 +30°C° 0.1 mm 3 mps 698 mmHg 55%
    18:00 +29°C° 0.1 mm 3 mps 698 mmHg 58%
    19:00 +29°C° 0 mm 3 mps 698 mmHg 61%
    20:00 +28°C° 0 mm 3 mps 698 mmHg 64%
    21:00 +27°C° 0 mm 3 mps 699 mmHg 67%
    22:00 +26°C° 0 mm 3 mps 698 mmHg 67%
    23:00 +26°C° 0 mm 4 mps 698 mmHg 67%

    Tomorrow, 16 December, Monday

    Time Temperature Precipitation Wind Pressure Humidity
    00:00 +25°C° 0 mm 4 mps 698 mmHg 68%
    01:00 +25°C° 0 mm 4 mps 698 mmHg 68%
    02:00 +23°C° 0 mm 4 mps 697 mmHg 68%
    03:00 +23°C° 0 mm 4 mps 697 mmHg 68%
    04:00 +23°C° 0 mm 4 mps 697 mmHg 68%
    05:00 +23°C° 0 mm 4 mps 697 mmHg 68%
    06:00 +23°C° 0 mm 4 mps 697 mmHg 68%
    07:00 +25°C° 0 mm 4 mps 697 mmHg 61%
    08:00 +27°C° 0 mm 5 mps 698 mmHg 55%
    09:00 +29°C° 0 mm 5 mps 698 mmHg 48%
    10:00 +30°C° 0 mm 5 mps 698 mmHg 46%
    11:00 +32°C° 0 mm 5 mps 698 mmHg 44%
    12:00 +33°C° 0 mm 5 mps 698 mmHg 42%
    13:00 +33°C° 0 mm 5 mps 697 mmHg 42%
    14:00 +33°C° 0 mm 5 mps 697 mmHg 42%
    15:00 +34°C° 0 mm 5 mps 696 mmHg 42%
    16:00 +33°C° 0 mm 5 mps 696 mmHg 45%
    17:00 +32°C° 0 mm 4 mps 695 mmHg 48%
    18:00 +30°C° 0 mm 4 mps 695 mmHg 51%
    19:00 +29°C° 0 mm 4 mps 695 mmHg 54%
    20:00 +28°C° 0 mm 3 mps 696 mmHg 57%
    21:00 +27°C° 0 mm 3 mps 696 mmHg 61%
    22:00 +26°C° 0 mm 3 mps 696 mmHg 63%
    23:00 +26°C° 0 mm 3 mps 696 mmHg 66%

    Day after tomorrow, 17 December, Tuesday

    Time Temperature Precipitation Wind Pressure Humidity
    00:00 +25°C° 0 mm 3 mps 696 mmHg 68%
    01:00 +25°C° 0 mm 3 mps 695 mmHg 70%
    02:00 +25°C° 0 mm 3 mps 695 mmHg 71%
    03:00 +24°C° 0 mm 3 mps 695 mmHg 72%
    04:00 +24°C° 0 mm 3 mps 695 mmHg 72%
    05:00 +24°C° 0 mm 3 mps 695 mmHg 71%
    06:00 +24°C° 0 mm 3 mps 696 mmHg 71%
    07:00 +25°C° 0 mm 3 mps 696 mmHg 64%
    08:00 +27°C° 0 mm 3 mps 697 mmHg 57%
    09:00 +28°C° 0 mm 3 mps 697 mmHg 50%
    10:00 +29°C° 0 mm 4 mps 697 mmHg 47%
    11:00 +29°C° 0 mm 4 mps 697 mmHg 44%
    12:00 +30°C° 0 mm 4 mps 696 mmHg 41%
    13:00 +32°C° 0 mm 5 mps 696 mmHg 40%
    14:00 +33°C° 0 mm 5 mps 695 mmHg 40%
    15:00 +33°C° 0 mm 5 mps 695 mmHg 39%
    16:00 +32°C° 0.2 mm 4 mps 695 mmHg 45%
    17:00 +29°C° 0.2 mm 4 mps 695 mmHg 51%
    18:00 +28°C° 0.2 mm 3 mps 694 mmHg 57%
    19:00 +27°C° 3.2 mm 3 mps 695 mmHg 65%
    20:00 +25°C° 3.2 mm 3 mps 695 mmHg 74%
    21:00 +24°C° 3.2 mm 2 mps 695 mmHg 83%
    22:00 +24°C° 5.8 mm 2 mps 695 mmHg 85%
    23:00 +22°C° 5.8 mm 3 mps 695 mmHg 86%

    18 December, Wednesday

    Time Temperature Precipitation Wind Pressure Humidity
    00:00 +22°C° 5.8 mm 3 mps 695 mmHg 88%
    01:00 +22°C° 3.3 mm 3 mps 695 mmHg 89%
    02:00 +21°C° 3.3 mm 2 mps 695 mmHg 89%
    03:00 +21°C° 3.3 mm 2 mps 695 mmHg 89%
    04:00 +21°C° 0.9 mm 3 mps 695 mmHg 89%
    05:00 +21°C° 0.9 mm 4 mps 696 mmHg 89%
    06:00 +20°C° 0.9 mm 5 mps 696 mmHg 89%
    07:00 +20°C° 0.6 mm 5 mps 697 mmHg 88%
    08:00 +20°C° 0.6 mm 5 mps 697 mmHg 88%
    09:00 +19°C° 0.6 mm 4 mps 698 mmHg 88%
    10:00 +20°C° 0.4 mm 4 mps 698 mmHg 86%
    11:00 +20°C° 0.4 mm 4 mps 698 mmHg 85%
    12:00 +20°C° 0.4 mm 4 mps 698 mmHg 83%
    13:00 +20°C° 0.3 mm 4 mps 698 mmHg 85%
    14:00 +20°C° 0.3 mm 4 mps 698 mmHg 86%
    15:00 +20°C° 0.3 mm 3 mps 698 mmHg 87%
    16:00 +20°C° 1.6 mm 3 mps 698 mmHg 88%
    17:00 +19°C° 1.6 mm 3 mps 698 mmHg 90%
    18:00 +19°C° 1.6 mm 3 mps 699 mmHg 91%
    19:00 +19°C° 2.3 mm 3 mps 699 mmHg 91%
    20:00 +19°C° 2.3 mm 3 mps 699 mmHg 92%
    21:00 +19°C° 2.3 mm 3 mps 699 mmHg 92%
    22:00 +19°C° 0.3 mm 3 mps 699 mmHg 91%
    23:00 +19°C° 0.3 mm 3 mps 699 mmHg 91%

    19 December, Thursday

    Time Temperature Precipitation Wind Pressure Humidity
    00:00 +19°C° 0.3 mm 2 mps 699 mmHg 90%
    01:00 +19°C° 0.1 mm 2 mps 699 mmHg 90%
    02:00 +19°C° 0.1 mm 2 mps 698 mmHg 90%
    03:00 +19°C° 0.1 mm 2 mps 698 mmHg 90%
    04:00 +19°C° 0.5 mm 2 mps 698 mmHg 90%
    05:00 +19°C° 0.5 mm 2 mps 698 mmHg 90%
    06:00 +20°C° 0.5 mm 2 mps 699 mmHg 90%
    07:00 +20°C° 0.4 mm 2 mps 699 mmHg 90%
    08:00 +20°C° 0.4 mm 2 mps 699 mmHg 90%
    09:00 +20°C° 0.4 mm 2 mps 700 mmHg 90%
    10:00 +20°C° 0.3 mm 2 mps 700 mmHg 89%
    11:00 +21°C° 0.3 mm 2 mps 699 mmHg 88%
    12:00 +21°C° 0.3 mm 2 mps 699 mmHg 87%
    13:00 +21°C° 0.2 mm 2 mps 699 mmHg 85%
    14:00 +23°C° 0.2 mm 2 mps 699 mmHg 84%
    15:00 +23°C° 0.2 mm 2 mps 698 mmHg 82%
    16:00 +23°C° 0 mm 2 mps 698 mmHg 84%
    17:00 +21°C° 0 mm 2 mps 698 mmHg 86%
    18:00 +21°C° 0 mm 2 mps 698 mmHg 88%
    19:00 +21°C° 0.1 mm 2 mps 699 mmHg 88%
    20:00 +21°C° 0.1 mm 2 mps 699 mmHg 88%
    21:00 +21°C° 0.1 mm 2 mps 699 mmHg 89%
    22:00 +21°C° 0 mm 2 mps 699 mmHg 88%
    23:00 +21°C° 0 mm 2 mps 699 mmHg 88%

    20 December, Friday

    Time Temperature Precipitation Wind Pressure Humidity
    00:00 +21°C° 0 mm 2 mps 699 mmHg 87%
    01:00 +21°C° 0 mm 2 mps 698 mmHg 88%
    02:00 +20°C° 0 mm 2 mps 698 mmHg 88%
    03:00 +21°C° 0 mm 1 mps 697 mmHg 88%
    04:00 +21°C° 0 mm 1 mps 697 mmHg 87%
    05:00 +21°C° 0 mm 1 mps 697 mmHg 86%
    06:00 +21°C° 0 mm 1 mps 698 mmHg 84%
    07:00 +23°C° 0 mm 1 mps 698 mmHg 77%
    08:00 +25°C° 0 mm 2 mps 699 mmHg 70%
    09:00 +26°C° 0 mm 2 mps 699 mmHg 64%
    10:00 +27°C° 0.3 mm 3 mps 699 mmHg 61%
    11:00 +28°C° 0.3 mm 3 mps 699 mmHg 58%
    12:00 +30°C° 0.3 mm 3 mps 699 mmHg 55%
    13:00 +29°C° 0.9 mm 3 mps 699 mmHg 56%
    14:00 +29°C° 0.9 mm 3 mps 698 mmHg 58%
    15:00 +29°C° 0.9 mm 2 mps 697 mmHg 59%
    16:00 +28°C° 0.6 mm 2 mps 697 mmHg 61%
    17:00 +28°C° 0.6 mm 2 mps 697 mmHg 63%
    18:00 +27°C° 0.6 mm 2 mps 697 mmHg 65%
    19:00 +27°C° 0.3 mm 2 mps 697 mmHg 68%
    20:00 +26°C° 0.3 mm 2 mps 698 mmHg 70%
    21:00 +25°C° 0.3 mm 2 mps 698 mmHg 73%
    22:00 +25°C° 0.1 mm 2 mps 698 mmHg 74%
    23:00 +24°C° 0.1 mm 2 mps 697 mmHg 75%
    Show more